SKYNET 5A

Last updated on Thu Oct 30 2025 00:02:47 GMT+0000 (Coordinated Universal Time)

1 30794U 07007B 25302.41855742 -.00000259 00000+0 00000+0 0 9990 2 30794 4.7116 76.5226 0003921 155.3545 52.0515 1.00272055 68380
UTC large
Height (km)
Speed (km/s)
/
Latitude / Longitude
Inclination (degrees)
Orbital Period (minutes)
Azimuth
Elevation
Range (km)
Doppler Factor

Next 0 passes for location: London (51.5072 / 0.1276)

Sorry there are no passes over London.